Simultaneous Nadir Overpasses (SNOs) Predictions

Prediction of SNOs between AQUA and GOES-15 Satellite Orbit:

Table of predicted SNOs for the next 14.0 days since TLE Epoch: 5/2/2015
Index Date Time (AQUA) AQUA Lat,Lon GOES-15 Lat,Lon Distance(km) Time Diff (sec)
1 05/03/2015 10:20:53 -0.84,-131.25 0.06,-135.45 477.80 80
2 05/03/2015 22:42:16 -0.27,-136.44 -0.06,-135.42 116.10 80
3 05/05/2015 22:30:03 0.33,-133.48 -0.06,-135.43 220.80 80
4 05/06/2015 10:51:19 0.72,-138.65 0.05,-135.46 361.85 80
5 05/08/2015 10:39:06 0.10,-135.68 0.05,-135.46 25.86 80
6 05/10/2015 10:26:53 -0.53,-132.72 0.06,-135.45 309.60 80
7 05/10/2015 22:48:16 -0.61,-137.91 -0.05,-135.41 284.98 80
8 05/12/2015 22:36:03 0.04,-134.95 -0.06,-135.39 50.02 80
9 05/14/2015 22:23:49 0.66,-131.98 -0.06,-135.37 384.59 80
10 05/15/2015 10:45:04 0.45,-137.14 0.05,-135.40 198.72 80




NCC Satellite Simultaneous Nadir Overpasses (SNOs) Prediction Service
